RYR9885 EPLL-EBCI

Flight info

Callsign RYR9885
Flight time 1h 36m
Altitude 38000
Route BAXIS DCT POZUM DCT TOLTA DCT ABAMI Z717 NEREL T855 BATTY
Aircraft B38M/M-SDE1FGHILORVWXY/HB1

Departure

Time 2026-04-26 16:29
Airport Łódź Władysław Reymont Airport (EPLL)

Arrival

Time 2026-04-26 18:05
Airport Brussels South Charleroi Airport (EBCI)
Time Latitude Longitude Altitude Speed Heading
2026-04-26 16:02 51.72619 19.40146 617 ft 0 kts 340°
2026-04-26 16:19 51.72603 19.40154 630 ft 4 kts 350°
2026-04-26 16:20 51.72570 19.40149 628 ft 4 kts 34°
2026-04-26 16:20 51.72558 19.40128 621 ft 1 kts 68°
2026-04-26 16:25 51.72562 19.40141 628 ft 4 kts 69°
2026-04-26 16:25 51.72583 19.40247 621 ft 15 kts 77°
2026-04-26 16:25 51.72588 19.40344 617 ft 11 kts 89°
2026-04-26 16:25 51.72531 19.40491 617 ft 11 kts 133°
2026-04-26 16:26 51.72498 19.40532 627 ft 6 kts 153°
2026-04-26 16:26 51.72494 19.40534 628 ft 0 kts 155°
2026-04-26 16:27 51.72490 19.40538 625 ft 0 kts 155°
2026-04-26 16:27 51.72489 19.40538 621 ft 1 kts 155°
2026-04-26 16:28 51.72478 19.40546 620 ft 3 kts 158°
2026-04-26 16:28 51.72436 19.40571 622 ft 11 kts 160°
2026-04-26 16:28 51.72359 19.40567 623 ft 12 kts 226°
2026-04-26 16:28 51.72317 19.40403 616 ft 21 kts 251°
2026-04-26 16:29 51.72190 19.39822 601 ft 96 kts 251°
2026-04-26 16:29 51.71886 19.38427 624 ft 162 kts 254°
2026-04-26 16:29 51.71489 19.36682 1473 ft 165 kts 251°
2026-04-26 16:29 51.71060 19.34843 2271 ft 183 kts 255°
2026-04-26 16:30 51.70606 19.32831 2992 ft 200 kts 255°
2026-04-26 16:30 51.70129 19.30717 3981 ft 205 kts 254°
2026-04-26 16:30 51.69633 19.28429 4652 ft 225 kts 261°
2026-04-26 16:30 51.69719 19.25938 5432 ft 230 kts 296°
2026-04-26 16:31 51.70720 19.23901 6305 ft 237 kts 313°
2026-04-26 16:31 51.71855 19.21881 7184 ft 248 kts 311°
2026-04-26 16:31 51.72975 19.19798 8252 ft 250 kts 311°
2026-04-26 16:31 51.74116 19.17620 9340 ft 251 kts 311°
2026-04-26 16:32 51.75223 19.15477 10376 ft 254 kts 311°
2026-04-26 16:32 51.76377 19.13220 11001 ft 270 kts 311°
2026-04-26 16:32 51.77609 19.10793 11540 ft 286 kts 311°
2026-04-26 16:32 51.78607 19.07958 12353 ft 298 kts 291°
2026-04-26 16:33 51.78965 19.04607 13276 ft 307 kts 283°
2026-04-26 16:33 51.79334 19.01216 14121 ft 308 kts 287°
2026-04-26 16:33 51.79712 18.97794 14926 ft 310 kts 286°
2026-04-26 16:33 51.80066 18.94344 15707 ft 312 kts 286°
2026-04-26 16:34 51.80408 18.90862 16475 ft 314 kts 286°
2026-04-26 16:34 51.80739 18.87359 17238 ft 317 kts 285°
2026-04-26 16:34 51.80710 18.83737 18061 ft 330 kts 273°
2026-04-26 16:34 51.80560 18.80039 18641 ft 327 kts 279°
2026-04-26 16:35 51.80593 18.76350 19234 ft 329 kts 278°
2026-04-26 16:35 51.80605 18.72624 19753 ft 334 kts 278°
2026-04-26 16:35 51.80603 18.68863 20350 ft 336 kts 277°
2026-04-26 16:35 51.80590 18.65062 20932 ft 339 kts 277°
2026-04-26 16:36 51.80571 18.61250 21515 ft 341 kts 277°
2026-04-26 16:36 51.80547 18.57393 22080 ft 344 kts 276°
2026-04-26 16:36 51.80521 18.53520 22634 ft 346 kts 276°
2026-04-26 16:36 51.80494 18.49668 23180 ft 349 kts 276°
2026-04-26 16:37 51.80466 18.45740 23719 ft 351 kts 276°
2026-04-26 16:37 51.80436 18.41782 24186 ft 353 kts 276°
2026-04-26 16:37 51.80405 18.37797 24594 ft 355 kts 276°
2026-04-26 16:37 51.80373 18.33788 25026 ft 358 kts 275°
2026-04-26 16:38 51.80338 18.29763 25449 ft 360 kts 275°
2026-04-26 16:38 51.80301 18.25702 25866 ft 362 kts 275°
2026-04-26 16:38 51.80264 18.21629 26252 ft 365 kts 274°
2026-04-26 16:38 51.80224 18.17515 26669 ft 367 kts 274°
2026-04-26 16:39 51.80192 18.14441 26982 ft 368 kts 274°
2026-04-26 16:39 51.80150 18.10565 27378 ft 370 kts 274°
2026-04-26 16:39 51.80106 18.06401 27775 ft 372 kts 274°
2026-04-26 16:39 51.80061 18.02216 28168 ft 373 kts 274°
2026-04-26 16:40 51.80014 17.98012 28548 ft 375 kts 273°
2026-04-26 16:40 51.79965 17.93788 28926 ft 377 kts 273°
2026-04-26 16:40 51.79914 17.89536 29293 ft 379 kts 273°
2026-04-26 16:40 51.79861 17.85270 29655 ft 381 kts 273°
2026-04-26 16:41 51.79806 17.80978 30007 ft 383 kts 273°
2026-04-26 16:41 51.79750 17.76665 30347 ft 385 kts 273°
2026-04-26 16:41 51.79693 17.72337 30603 ft 387 kts 272°
2026-04-26 16:41 51.79633 17.68028 30857 ft 389 kts 272°
2026-04-26 16:42 51.79568 17.63591 31146 ft 391 kts 272°
2026-04-26 16:42 51.79504 17.59256 31423 ft 392 kts 271°
2026-04-26 16:42 51.79436 17.54845 31701 ft 394 kts 271°
2026-04-26 16:42 51.79367 17.50418 31978 ft 395 kts 271°
2026-04-26 16:43 51.79296 17.45977 32305 ft 395 kts 271°
2026-04-26 16:43 51.79207 17.41552 32700 ft 394 kts 270°
2026-04-26 16:43 51.79074 17.37139 33098 ft 393 kts 269°
2026-04-26 16:43 51.78864 17.32745 33492 ft 392 kts 268°
2026-04-26 16:44 51.78575 17.28360 33871 ft 392 kts 266°
2026-04-26 16:44 51.78199 17.24004 34240 ft 392 kts 264°
2026-04-26 16:44 51.77724 17.19671 34496 ft 393 kts 261°
2026-04-26 16:44 51.77085 17.15364 34705 ft 397 kts 257°
2026-04-26 16:45 51.76213 17.11113 34953 ft 401 kts 252°
2026-04-26 16:45 51.75044 17.07006 35185 ft 406 kts 245°
2026-04-26 16:45 51.73510 17.03123 35370 ft 415 kts 237°
2026-04-26 16:45 51.71582 16.99600 35618 ft 423 kts 228°
2026-04-26 16:46 51.69539 16.96226 35926 ft 414 kts 238°
2026-04-26 16:46 51.67950 16.92439 36181 ft 404 kts 250°
2026-04-26 16:46 51.66978 16.88241 36216 ft 398 kts 263°
2026-04-26 16:46 51.66712 16.83849 36450 ft 390 kts 276°
2026-04-26 16:47 51.67138 16.79572 36636 ft 387 kts 289°
2026-04-26 16:47 51.68215 16.75614 36840 ft 386 kts 300°
2026-04-26 16:47 51.69603 16.71912 37030 ft 387 kts 301°
2026-04-26 16:47 51.71037 16.68229 37221 ft 388 kts 302°
2026-04-26 16:48 51.72477 16.64552 37389 ft 389 kts 302°
2026-04-26 16:48 51.73930 16.60852 37546 ft 391 kts 302°
2026-04-26 16:48 51.75363 16.57123 37759 ft 391 kts 300°
2026-04-26 16:48 51.76467 16.53132 37949 ft 391 kts 285°
2026-04-26 16:49 51.76850 16.48789 38191 ft 392 kts 277°
2026-04-26 16:49 51.76992 16.44385 38281 ft 395 kts 274°
2026-04-26 16:49 51.76988 16.35500 38270 ft 396 kts 272°
2026-04-26 16:50 51.76819 16.26612 38271 ft 396 kts 271°
2026-04-26 16:50 51.76595 16.17723 38260 ft 397 kts 270°
2026-04-26 16:51 51.76354 16.08802 38273 ft 398 kts 270°
2026-04-26 16:51 51.76106 15.99879 38276 ft 398 kts 270°
2026-04-26 16:52 51.75894 15.92471 38273 ft 398 kts 270°
2026-04-26 16:52 51.75589 15.82107 38276 ft 398 kts 270°
2026-04-26 16:53 51.75320 15.73188 38276 ft 398 kts 270°
2026-04-26 16:53 51.75044 15.64270 38274 ft 398 kts 270°
2026-04-26 16:54 51.74761 15.55335 38275 ft 399 kts 270°
2026-04-26 16:54 51.74471 15.46392 38278 ft 399 kts 270°
2026-04-26 16:55 51.74173 15.37451 38277 ft 400 kts 269°
2026-04-26 16:55 51.73868 15.28471 38280 ft 401 kts 269°
2026-04-26 16:56 51.73398 15.15014 38273 ft 401 kts 269°
2026-04-26 16:57 51.73075 15.06005 38279 ft 402 kts 269°
2026-04-26 16:57 51.72582 14.92495 38281 ft 402 kts 269°
2026-04-26 16:58 51.72302 14.85011 38277 ft 402 kts 269°
2026-04-26 16:59 51.71730 14.70050 38279 ft 402 kts 269°
2026-04-26 17:00 51.72020 14.52042 38278 ft 403 kts 273°
2026-04-26 17:00 51.72213 14.38497 38281 ft 403 kts 273°
2026-04-26 17:01 51.72331 14.29473 38280 ft 403 kts 273°
2026-04-26 17:01 51.72443 14.20430 38278 ft 403 kts 273°
2026-04-26 17:02 51.72548 14.11394 38279 ft 403 kts 272°
2026-04-26 17:02 51.72645 14.02350 38276 ft 403 kts 272°
2026-04-26 17:03 51.72736 13.93365 38278 ft 403 kts 272°
2026-04-26 17:03 51.72820 13.84317 38279 ft 403 kts 272°
2026-04-26 17:04 51.72897 13.75279 38278 ft 403 kts 272°
2026-04-26 17:04 51.72966 13.66254 38267 ft 404 kts 272°
2026-04-26 17:05 51.73030 13.57148 38282 ft 406 kts 272°
2026-04-26 17:05 51.73086 13.48041 38285 ft 406 kts 272°
2026-04-26 17:06 51.73136 13.38934 38291 ft 406 kts 272°
2026-04-26 17:06 51.73178 13.29824 38292 ft 406 kts 272°
2026-04-26 17:07 51.73214 13.20700 38291 ft 406 kts 272°
2026-04-26 17:07 51.73242 13.11641 38283 ft 408 kts 272°
2026-04-26 17:08 51.73263 13.02492 38280 ft 408 kts 272°
2026-04-26 17:08 51.73276 12.93340 38283 ft 408 kts 271°
2026-04-26 17:09 51.73282 12.85671 38280 ft 408 kts 271°
2026-04-26 17:09 51.73283 12.75033 38282 ft 408 kts 271°
2026-04-26 17:10 51.73276 12.65879 38278 ft 409 kts 271°
2026-04-26 17:10 51.73260 12.56688 38284 ft 410 kts 271°
2026-04-26 17:11 51.73239 12.47497 38280 ft 410 kts 271°
2026-04-26 17:11 51.73211 12.38311 38282 ft 410 kts 271°
2026-04-26 17:12 51.73154 12.24520 38281 ft 410 kts 270°
2026-04-26 17:13 51.73082 12.10705 38285 ft 411 kts 270°
2026-04-26 17:14 51.72993 11.96876 38296 ft 411 kts 270°
2026-04-26 17:14 51.72887 11.83030 38286 ft 411 kts 270°
2026-04-26 17:15 51.72767 11.69244 38275 ft 411 kts 270°
2026-04-26 17:16 51.72691 11.61510 38302 ft 413 kts 270°
2026-04-26 17:16 51.72579 11.50746 38288 ft 412 kts 270°
2026-04-26 17:17 51.72474 11.41499 38276 ft 413 kts 270°
2026-04-26 17:17 51.72361 11.32213 38293 ft 415 kts 269°
2026-04-26 17:18 51.72260 11.24493 38282 ft 414 kts 269°
2026-04-26 17:18 51.72132 11.15201 38280 ft 415 kts 269°
2026-04-26 17:19 51.71927 11.01228 38290 ft 415 kts 269°
2026-04-26 17:19 51.71783 10.91936 38281 ft 415 kts 269°
2026-04-26 17:20 51.71656 10.84183 38281 ft 415 kts 269°
2026-04-26 17:20 51.71472 10.73300 38285 ft 415 kts 269°
2026-04-26 17:21 51.71304 10.63976 38282 ft 415 kts 269°
2026-04-26 17:21 51.71131 10.54670 38281 ft 415 kts 269°
2026-04-26 17:22 51.70949 10.45362 38280 ft 416 kts 269°
2026-04-26 17:22 51.70760 10.36040 38278 ft 416 kts 269°
2026-04-26 17:23 51.70563 10.26728 38279 ft 416 kts 269°
2026-04-26 17:23 51.70361 10.17477 38267 ft 415 kts 269°
2026-04-26 17:24 51.70151 10.08168 38274 ft 416 kts 269°
2026-04-26 17:24 51.69933 9.98848 38277 ft 416 kts 269°
2026-04-26 17:25 51.69710 9.89534 38273 ft 416 kts 269°
2026-04-26 17:25 51.69481 9.80216 38276 ft 416 kts 269°
2026-04-26 17:26 51.69244 9.70892 38279 ft 416 kts 269°
2026-04-26 17:26 51.69000 9.61561 38269 ft 417 kts 269°
2026-04-26 17:27 51.68735 9.52223 38271 ft 417 kts 265°
2026-04-26 17:27 51.67536 9.43105 38254 ft 419 kts 264°
2026-04-26 17:28 51.66677 9.33833 38262 ft 420 kts 262°
2026-04-26 17:28 51.65710 9.24557 38277 ft 420 kts 262°
2026-04-26 17:29 51.64868 9.16851 38269 ft 420 kts 262°
2026-04-26 17:29 51.63672 9.06024 38269 ft 420 kts 261°
2026-04-26 17:30 51.62640 8.96753 38267 ft 420 kts 261°
2026-04-26 17:30 51.61602 8.87497 38267 ft 420 kts 261°
2026-04-26 17:31 51.60555 8.78241 38267 ft 420 kts 261°
2026-04-26 17:31 51.59501 8.69003 38255 ft 420 kts 261°
2026-04-26 17:32 51.58440 8.59759 38267 ft 421 kts 261°
2026-04-26 17:32 51.57371 8.50496 38265 ft 421 kts 261°
2026-04-26 17:33 51.56294 8.41249 38275 ft 421 kts 261°
2026-04-26 17:34 51.54665 8.27374 38280 ft 421 kts 261°
2026-04-26 17:34 51.53570 8.18138 38251 ft 421 kts 261°
2026-04-26 17:34 51.53017 8.13490 38088 ft 421 kts 261°
2026-04-26 17:35 51.52468 8.08893 37848 ft 421 kts 261°
2026-04-26 17:35 51.51914 8.04274 37592 ft 421 kts 261°
2026-04-26 17:35 51.51360 7.99670 37328 ft 421 kts 261°
2026-04-26 17:35 51.50808 7.95102 37097 ft 421 kts 261°
2026-04-26 17:36 51.50240 7.90423 36865 ft 422 kts 261°
2026-04-26 17:36 51.49678 7.85801 36646 ft 423 kts 261°
2026-04-26 17:36 51.49113 7.81174 36426 ft 423 kts 261°
2026-04-26 17:36 51.48545 7.76539 36207 ft 423 kts 261°
2026-04-26 17:37 51.47974 7.71904 35992 ft 424 kts 261°
2026-04-26 17:37 51.47401 7.67265 35767 ft 424 kts 261°
2026-04-26 17:37 51.46827 7.62633 35558 ft 424 kts 261°
2026-04-26 17:38 51.45674 7.53359 35139 ft 424 kts 261°
2026-04-26 17:38 51.45095 7.48726 34948 ft 424 kts 261°
2026-04-26 17:38 51.44521 7.44143 34751 ft 425 kts 261°
2026-04-26 17:38 51.43941 7.39504 34548 ft 425 kts 261°
2026-04-26 17:39 51.43356 7.34865 34347 ft 425 kts 261°
2026-04-26 17:39 51.42681 7.30174 34135 ft 427 kts 253°
2026-04-26 17:39 51.41318 7.25985 33929 ft 436 kts 237°
2026-04-26 17:39 51.39369 7.22230 33657 ft 443 kts 231°
2026-04-26 17:40 51.37406 7.18433 33338 ft 441 kts 238°
2026-04-26 17:40 51.36288 7.15661 33168 ft 439 kts 240°
2026-04-26 17:40 51.34034 7.10268 32884 ft 441 kts 238°
2026-04-26 17:40 51.32248 7.06265 32640 ft 443 kts 237°
2026-04-26 17:41 51.30430 7.02280 32407 ft 444 kts 237°
2026-04-26 17:41 51.28598 6.98322 32181 ft 445 kts 236°
2026-04-26 17:41 51.26742 6.94353 31956 ft 445 kts 236°
2026-04-26 17:41 51.24881 6.90398 31728 ft 446 kts 236°
2026-04-26 17:42 51.23015 6.86437 31505 ft 447 kts 236°
2026-04-26 17:42 51.21149 6.82483 31293 ft 447 kts 236°
2026-04-26 17:42 51.19271 6.78507 31063 ft 448 kts 236°
2026-04-26 17:42 51.17396 6.74546 30845 ft 449 kts 236°
2026-04-26 17:43 51.15514 6.70575 30628 ft 449 kts 236°
2026-04-26 17:43 51.13627 6.66599 30394 ft 450 kts 236°
2026-04-26 17:43 51.11735 6.62619 30144 ft 452 kts 236°
2026-04-26 17:43 51.09834 6.58626 29893 ft 452 kts 236°
2026-04-26 17:44 51.07773 6.54822 29657 ft 457 kts 226°
2026-04-26 17:44 51.05403 6.51423 29366 ft 459 kts 226°
2026-04-26 17:44 51.03187 6.47801 29134 ft 458 kts 229°
2026-04-26 17:44 51.00968 6.44152 28873 ft 459 kts 228°
2026-04-26 17:45 50.98762 6.40599 28637 ft 459 kts 228°
2026-04-26 17:45 50.96474 6.36960 28390 ft 460 kts 227°
2026-04-26 17:45 50.94233 6.33427 28251 ft 460 kts 227°
2026-04-26 17:45 50.91957 6.29852 28271 ft 461 kts 227°
2026-04-26 17:46 50.87390 6.22698 28271 ft 462 kts 227°
2026-04-26 17:46 50.82825 6.15562 28268 ft 462 kts 227°
2026-04-26 17:47 50.78992 6.09589 28259 ft 462 kts 227°
2026-04-26 17:47 50.73782 6.01202 28256 ft 457 kts 233°
2026-04-26 17:48 50.69582 5.93650 28234 ft 459 kts 230°
2026-04-26 17:48 50.65280 5.86199 28264 ft 459 kts 230°
2026-04-26 17:49 50.61181 5.78527 28250 ft 454 kts 240°
2026-04-26 17:49 50.59771 5.74125 28271 ft 449 kts 251°
2026-04-26 17:49 50.58730 5.69506 28275 ft 447 kts 253°
2026-04-26 17:50 50.57764 5.64872 27976 ft 443 kts 254°
2026-04-26 17:50 50.56803 5.60252 27039 ft 445 kts 253°
2026-04-26 17:50 50.56172 5.57191 26443 ft 445 kts 253°
2026-04-26 17:50 50.54950 5.51076 25314 ft 433 kts 254°
2026-04-26 17:51 50.54073 5.46589 24524 ft 424 kts 254°
2026-04-26 17:51 50.53222 5.42188 23752 ft 417 kts 254°
2026-04-26 17:51 50.52395 5.37870 22882 ft 410 kts 254°
2026-04-26 17:51 50.51578 5.33606 22034 ft 404 kts 254°
2026-04-26 17:52 50.50775 5.29415 21233 ft 398 kts 254°
2026-04-26 17:52 50.49982 5.25290 20468 ft 392 kts 254°
2026-04-26 17:52 50.49207 5.21268 19736 ft 387 kts 254°
2026-04-26 17:52 50.48434 5.17262 19030 ft 383 kts 254°
2026-04-26 17:53 50.47652 5.13230 18296 ft 378 kts 254°
2026-04-26 17:53 50.46891 5.09300 17709 ft 369 kts 253°
2026-04-26 17:53 50.46164 5.05501 17040 ft 363 kts 253°
2026-04-26 17:54 50.44761 4.97998 15655 ft 355 kts 253°
2026-04-26 17:54 50.44077 4.94314 14984 ft 351 kts 253°
2026-04-26 17:54 50.43410 4.90709 14353 ft 348 kts 253°
2026-04-26 17:54 50.42743 4.87092 13682 ft 344 kts 253°
2026-04-26 17:55 50.42073 4.83439 12969 ft 340 kts 253°
2026-04-26 17:55 50.41436 4.79942 12309 ft 336 kts 253°
2026-04-26 17:55 50.40796 4.76434 11657 ft 333 kts 253°
2026-04-26 17:55 50.40166 4.72965 11022 ft 329 kts 253°
2026-04-26 17:56 50.39554 4.69544 10410 ft 325 kts 253°
2026-04-26 17:56 50.38369 4.62789 9138 ft 317 kts 253°
2026-04-26 17:57 50.37227 4.56193 7903 ft 311 kts 253°
2026-04-26 17:57 50.36673 4.52937 7342 ft 307 kts 253°
2026-04-26 17:57 50.36139 4.49745 6940 ft 298 kts 253°
2026-04-26 17:57 50.35625 4.46645 6542 ft 290 kts 253°
2026-04-26 17:58 50.34145 4.37797 5335 ft 271 kts 253°
2026-04-26 17:59 50.33179 4.32210 4552 ft 261 kts 253°
2026-04-26 17:59 50.32703 4.29504 4193 ft 255 kts 253°
2026-04-26 17:59 50.32319 4.26862 3982 ft 242 kts 266°
2026-04-26 17:59 50.32680 4.24452 3850 ft 220 kts 304°
2026-04-26 18:00 50.33806 4.23114 3756 ft 195 kts 344°
2026-04-26 18:00 50.35080 4.22757 3749 ft 182 kts 350°
2026-04-26 18:00 50.36338 4.22468 3730 ft 183 kts 343°
2026-04-26 18:00 50.37532 4.21799 3626 ft 183 kts 336°
2026-04-26 18:01 50.38734 4.21161 3390 ft 182 kts 347°
2026-04-26 18:01 50.39982 4.21158 3065 ft 179 kts 15°
2026-04-26 18:01 50.40967 4.22238 2793 ft 176 kts 55°
2026-04-26 18:01 50.41310 4.24064 2697 ft 175 kts 76°
2026-04-26 18:02 50.41528 4.25936 2728 ft 175 kts 72°
2026-04-26 18:02 50.41624 4.26541 2727 ft 175 kts 69°
2026-04-26 18:02 50.42090 4.29615 2523 ft 169 kts 79°
2026-04-26 18:02 50.42272 4.31408 2324 ft 164 kts 77°
2026-04-26 18:03 50.42527 4.33127 2086 ft 157 kts 73°
2026-04-26 18:03 50.42858 4.34690 1845 ft 148 kts 67°
2026-04-26 18:03 50.43252 4.36170 1682 ft 142 kts 64°
2026-04-26 18:03 50.43671 4.37551 1505 ft 140 kts 63°
2026-04-26 18:04 50.44098 4.38932 1340 ft 140 kts 64°
2026-04-26 18:04 50.44512 4.40307 1177 ft 139 kts 65°
2026-04-26 18:04 50.44909 4.41657 969 ft 135 kts 63°
2026-04-26 18:05 50.45730 4.44416 618 ft 131 kts 64°
2026-04-26 18:05 50.46043 4.45485 596 ft 78 kts 66°
2026-04-26 18:05 50.46212 4.46067 594 ft 42 kts 65°
2026-04-26 18:05 50.46304 4.46385 592 ft 29 kts 65°
2026-04-26 18:06 50.46361 4.46578 592 ft 29 kts 65°
2026-04-26 18:06 50.46431 4.46818 597 ft 11 kts 66°
2026-04-26 18:06 50.46487 4.46890 596 ft 12 kts
2026-04-26 18:06 50.46559 4.46859 597 ft 8 kts 336°
2026-04-26 18:07 50.46566 4.46854 596 ft 0 kts 335°
2026-04-26 18:08 50.46571 4.46851 596 ft 3 kts 335°
2026-04-26 18:08 50.46615 4.46819 595 ft 11 kts 335°
2026-04-26 18:08 50.46669 4.46786 593 ft 4 kts 17°
2026-04-26 18:08 50.46690 4.46837 593 ft 9 kts 63°
2026-04-26 18:09 50.46719 4.46920 591 ft 8 kts 32°
2026-04-26 18:09 50.46774 4.46899 587 ft 2 kts 335°
2026-04-26 18:09 50.46793 4.46885 588 ft 3 kts 334°
2026-04-26 18:09 50.46803 4.46877 588 ft 0 kts 335°
2026-04-26 18:10 50.46804 4.46877 588 ft 0 kts 335°